Notices

What's New in latest Release from April 7th, 2021:

- Updated Glossary, including Speed of Maximum Gust, and Total Hourly Precipitation

- Updated national and regional climate services offices contacts and prices information

- Addition of station inventory lists for 1981-2010, 1971-2000, and 1961-1990 Normals.

If you haven't already, please take our survey and provide feedback about our website: https://eccc.sondage-survey.ca/f/LanguageSelection.aspx?s=442ca660-fcf1-47c0-95a9-59707d6fd709

Hourly Data Report for April 04, 2012

MIRAMICHI RCS
NEW BRUNSWICK

47°00'34.000" N
65°27'54.000" W
33.00 m
8100989
71744
ACQ

Download Data

Hourly Data (April 2012)
Hourly Data Report for April 4, 2012
TIME
LST
Temp Definition
°C
Dew Point Definition
°C
Rel Hum Definition
%
Precip. Amount Definition
mm

Wind Dir Definition
10's deg

Wind Spd Definition
km/h
Visibility Definition
km
Stn Press Definition
kPa
Hmdx Definition


Wind Chill Definition


Weather Definition


00:00 0.0 -6.1 63   29 6   99.66   -2 LegendNANA
01:00 -0.1 -6.2 63   31 9   99.57   -3 LegendNANA
02:00 -0.4 -6.2 65   30 11   99.54   -4 LegendNANA
03:00 -0.5 -6.5 64   28 6   99.49   -3 LegendNANA
04:00 -1.0 -6.5 66   28 9   99.46   -4 LegendNANA
05:00 0.3 -6.6 60   36 4   99.41     LegendNANA
06:00 -0.8 -6.7 64   34 6   99.41   -3 LegendNANA
07:00 0.4 -6.0 62   27 7   99.40     LegendNANA
08:00 1.4 -6.0 58   21 2   99.37     LegendNANA
09:00 3.3 -5.9 51   36 4   99.25     LegendNANA
10:00 5.3 -5.5 46   24 2   99.17     LegendNANA
11:00 6.4 -5.7 42   27 7   99.02     LegendNANA
12:00 7.0 -5.4 41   26 9   98.93     LegendNANA
13:00 7.0 -4.9 42   31 13   98.90     LegendNANA
14:00 6.6 -4.0 47   32 11   98.91     LegendNANA
15:00 5.8 -2.4 56   30 13   98.91     LegendNANA
16:00 5.1 -1.0 65   27 15   98.87     LegendNANA
17:00 4.9 -0.7 67   29 13   98.87     LegendNANA
18:00 3.2 -0.2 78   31 13   98.91     LegendNANA
19:00 2.0 -0.2 85   28 7   98.94     LegendNANA
20:00 1.9 -0.2 86   28 7   98.98     LegendNANA
21:00 1.9 -0.9 82   24 7   98.97     LegendNANA
22:00 1.8 -1.5 79   25 7   98.97     LegendNANA
23:00 2.0 -2.3 73   32 4   98.96     LegendNANA

Notes on Data Quality.

Legend

  • E = Estimated
  • M = Missing
  • NA = Not Available*
  • [empty] = Indicates an unobserved value
Date modified: